When you browse on this site, cookies collect data to enhance your experience and personalize the content and advertising you see.
Visit our Privacy Policy to learn more. By continuing to use the site, you agree to this use of cookies and data.
  • In Hungary
  • List of Countries
  • For 7 days
  • Water Temperature
  • Weather Map
  • News
  • Weather Widgets
  • user-avatar
    Login

    Hourly Weather Yazykovo

    Today, 19 October, Saturday

    Time Temperature Precipitation Wind Pressure Humidity
    00:00 +11°C° 0 mm 1 mps 746 mmHg 85%
    01:00 +11°C° 0 mm 1 mps 746 mmHg 87%
    02:00 +10°C° 0 mm 1 mps 746 mmHg 88%
    03:00 +9°C° 0 mm 2 mps 747 mmHg 91%
    04:00 +8°C° 0 mm 2 mps 747 mmHg 92%
    05:00 +8°C° 0 mm 2 mps 747 mmHg 93%
    06:00 +8°C° 0 mm 2 mps 748 mmHg 94%
    07:00 +8°C° 0 mm 2 mps 748 mmHg 93%
    08:00 +9°C° 0 mm 2 mps 748 mmHg 91%
    09:00 +9°C° 0 mm 2 mps 749 mmHg 90%
    10:00 +10°C° 0 mm 2 mps 749 mmHg 86%
    11:00 +10°C° 0 mm 2 mps 749 mmHg 82%
    12:00 +12°C° 0 mm 2 mps 749 mmHg 78%
    13:00 +12°C° 0 mm 2 mps 749 mmHg 76%
    14:00 +12°C° 0 mm 1 mps 750 mmHg 75%
    15:00 +12°C° 0 mm 1 mps 750 mmHg 74%
    16:00 +12°C° 0 mm 1 mps 750 mmHg 76%
    17:00 +11°C° 0 mm 1 mps 750 mmHg 78%
    18:00 +9°C° 0 mm 2 mps 750 mmHg 81%
    19:00 +9°C° 0 mm 2 mps 751 mmHg 83%
    20:00 +8°C° 0 mm 2 mps 751 mmHg 86%
    21:00 +7°C° 0 mm 2 mps 751 mmHg 88%
    22:00 +7°C° 0 mm 2 mps 751 mmHg 89%
    23:00 +7°C° 0 mm 2 mps 751 mmHg 90%

    Tomorrow, 20 October, Sunday

    Time Temperature Precipitation Wind Pressure Humidity
    00:00 +6°C° 0 mm 2 mps 751 mmHg 90%
    01:00 +6°C° 0 mm 2 mps 751 mmHg 91%
    02:00 +6°C° 0 mm 2 mps 752 mmHg 92%
    03:00 +6°C° 0 mm 2 mps 752 mmHg 93%
    04:00 +6°C° 0 mm 2 mps 752 mmHg 93%
    05:00 +6°C° 0 mm 2 mps 752 mmHg 93%
    06:00 +6°C° 0 mm 2 mps 752 mmHg 94%
    07:00 +6°C° 0 mm 2 mps 752 mmHg 91%
    08:00 +7°C° 0 mm 3 mps 752 mmHg 89%
    09:00 +8°C° 0 mm 3 mps 752 mmHg 86%
    10:00 +9°C° 0 mm 3 mps 752 mmHg 82%
    11:00 +11°C° 0 mm 3 mps 752 mmHg 78%
    12:00 +12°C° 0 mm 3 mps 752 mmHg 74%
    13:00 +12°C° 0 mm 3 mps 752 mmHg 74%
    14:00 +13°C° 0 mm 3 mps 752 mmHg 74%
    15:00 +13°C° 0 mm 3 mps 752 mmHg 74%
    16:00 +12°C° 0 mm 3 mps 752 mmHg 78%
    17:00 +11°C° 0 mm 3 mps 752 mmHg 83%
    18:00 +10°C° 0 mm 3 mps 752 mmHg 87%
    19:00 +10°C° 0 mm 3 mps 752 mmHg 88%
    20:00 +10°C° 0 mm 3 mps 752 mmHg 89%
    21:00 +10°C° 0 mm 3 mps 752 mmHg 89%
    22:00 +9°C° 0 mm 3 mps 752 mmHg 90%
    23:00 +9°C° 0 mm 3 mps 752 mmHg 91%

    Day after tomorrow, 21 October, Monday

    Time Temperature Precipitation Wind Pressure Humidity
    00:00 +9°C° 0 mm 3 mps 752 mmHg 91%
    01:00 +9°C° 0 mm 3 mps 752 mmHg 92%
    02:00 +9°C° 0 mm 3 mps 752 mmHg 92%
    03:00 +8°C° 0 mm 3 mps 752 mmHg 93%
    04:00 +8°C° 0 mm 3 mps 752 mmHg 93%
    05:00 +8°C° 0 mm 3 mps 752 mmHg 93%
    06:00 +8°C° 0 mm 3 mps 752 mmHg 94%
    07:00 +8°C° 0 mm 4 mps 752 mmHg 91%
    08:00 +10°C° 0 mm 4 mps 752 mmHg 88%
    09:00 +9°C° 0 mm 5 mps 752 mmHg 85%
    10:00 +12°C° 0 mm 5 mps 752 mmHg 81%
    11:00 +13°C° 0 mm 5 mps 751 mmHg 76%
    12:00 +14°C° 0 mm 6 mps 751 mmHg 72%
    13:00 +14°C° 0 mm 6 mps 751 mmHg 71%
    14:00 +15°C° 0 mm 6 mps 750 mmHg 70%
    15:00 +15°C° 0 mm 6 mps 750 mmHg 69%
    16:00 +14°C° 0 mm 5 mps 750 mmHg 73%
    17:00 +13°C° 0 mm 5 mps 749 mmHg 77%
    18:00 +12°C° 0 mm 5 mps 749 mmHg 81%
    19:00 +11°C° 0 mm 6 mps 749 mmHg 81%
    20:00 +11°C° 0 mm 6 mps 749 mmHg 81%
    21:00 +11°C° 0 mm 6 mps 748 mmHg 81%
    22:00 +11°C° 0 mm 6 mps 748 mmHg 81%
    23:00 +11°C° 0 mm 6 mps 748 mmHg 81%

    22 October, Tuesday

    Time Temperature Precipitation Wind Pressure Humidity
    00:00 +10°C° 0 mm 6 mps 747 mmHg 81%
    01:00 +10°C° 0 mm 6 mps 747 mmHg 82%
    02:00 +10°C° 0 mm 6 mps 747 mmHg 83%
    03:00 +10°C° 0 mm 6 mps 747 mmHg 84%
    04:00 +10°C° 0 mm 5 mps 747 mmHg 85%
    05:00 +10°C° 0 mm 4 mps 747 mmHg 87%
    06:00 +10°C° 0 mm 4 mps 747 mmHg 88%
    07:00 +10°C° 0 mm 3 mps 747 mmHg 89%
    08:00 +10°C° 0 mm 3 mps 747 mmHg 90%
    09:00 +10°C° 0 mm 3 mps 748 mmHg 91%
    10:00 +10°C° 0.2 mm 3 mps 748 mmHg 91%
    11:00 +11°C° 0.2 mm 3 mps 748 mmHg 92%
    12:00 +11°C° 0.2 mm 3 mps 748 mmHg 93%
    13:00 +11°C° 0 mm 3 mps 748 mmHg 90%
    14:00 +12°C° 0 mm 3 mps 748 mmHg 87%
    15:00 +12°C° 0 mm 3 mps 748 mmHg 84%
    16:00 +12°C° 0 mm 3 mps 748 mmHg 87%
    17:00 +12°C° 0 mm 2 mps 748 mmHg 89%
    18:00 +10°C° 0 mm 2 mps 748 mmHg 92%
    19:00 +11°C° 0 mm 1 mps 748 mmHg 93%
    20:00 +11°C° 0 mm 1 mps 748 mmHg 93%
    21:00 +10°C° 0 mm 1 mps 748 mmHg 94%
    22:00 +10°C° 0 mm 1 mps 748 mmHg 94%
    23:00 +10°C° 0 mm 1 mps 748 mmHg 94%

    23 October, Wednesday

    Time Temperature Precipitation Wind Pressure Humidity
    00:00 +10°C° 0 mm 1 mps 748 mmHg 94%
    01:00 +10°C° 0 mm 1 mps 748 mmHg 94%
    02:00 +9°C° 0 mm 1 mps 748 mmHg 94%
    03:00 +9°C° 0 mm 1 mps 748 mmHg 94%
    04:00 +9°C° 0 mm 1 mps 748 mmHg 94%
    05:00 +10°C° 0 mm 1 mps 748 mmHg 95%
    06:00 +10°C° 0 mm 1 mps 748 mmHg 95%
    07:00 +10°C° 0 mm 1 mps 748 mmHg 95%
    08:00 +10°C° 0 mm 1 mps 748 mmHg 95%
    09:00 +10°C° 0 mm 1 mps 747 mmHg 95%
    10:00 +11°C° 0 mm 1 mps 747 mmHg 91%
    11:00 +12°C° 0 mm 2 mps 748 mmHg 87%
    12:00 +12°C° 0 mm 2 mps 748 mmHg 83%
    13:00 +13°C° 0 mm 2 mps 747 mmHg 82%
    14:00 +13°C° 0 mm 2 mps 747 mmHg 81%
    15:00 +14°C° 0 mm 2 mps 747 mmHg 81%
    16:00 +13°C° 0 mm 2 mps 747 mmHg 85%
    17:00 +11°C° 0 mm 3 mps 747 mmHg 89%
    18:00 +10°C° 0 mm 3 mps 747 mmHg 93%
    19:00 +10°C° 0 mm 3 mps 746 mmHg 93%
    20:00 +10°C° 0 mm 3 mps 746 mmHg 94%
    21:00 +10°C° 0 mm 3 mps 746 mmHg 95%
    22:00 +10°C° 0 mm 3 mps 746 mmHg 94%
    23:00 +10°C° 0 mm 3 mps 746 mmHg 94%

    24 October, Thursday

    Time Temperature Precipitation Wind Pressure Humidity
    00:00 +10°C° 0 mm 3 mps 746 mmHg 94%
    01:00 +9°C° 0 mm 3 mps 746 mmHg 95%
    02:00 +9°C° 0 mm 3 mps 746 mmHg 95%
    03:00 +9°C° 0 mm 3 mps 746 mmHg 96%
    04:00 +8°C° 0 mm 3 mps 746 mmHg 96%
    05:00 +8°C° 0 mm 2 mps 746 mmHg 96%
    06:00 +7°C° 0 mm 2 mps 746 mmHg 95%
    07:00 +8°C° 0 mm 2 mps 746 mmHg 92%
    08:00 +9°C° 0 mm 2 mps 746 mmHg 89%
    09:00 +9°C° 0 mm 2 mps 746 mmHg 85%
    10:00 +10°C° 0 mm 2 mps 746 mmHg 81%
    11:00 +12°C° 0 mm 2 mps 746 mmHg 77%
    12:00 +13°C° 0 mm 2 mps 747 mmHg 73%
    13:00 +13°C° 0 mm 2 mps 746 mmHg 74%
    14:00 +13°C° 0 mm 2 mps 746 mmHg 75%
    15:00 +13°C° 0 mm 2 mps 746 mmHg 76%
    16:00 +13°C° 0 mm 2 mps 746 mmHg 80%
    17:00 +12°C° 0 mm 2 mps 746 mmHg 84%
    18:00 +12°C° 0 mm 1 mps 746 mmHg 87%
    19:00 +11°C° 0.3 mm 1 mps 746 mmHg 89%
    20:00 +11°C° 0.3 mm 1 mps 746 mmHg 91%
    21:00 +11°C° 0.3 mm 1 mps 747 mmHg 93%
    22:00 +11°C° 0.1 mm 1 mps 747 mmHg 93%
    23:00 +9°C° 0.1 mm 2 mps 747 mmHg 93%
    Show more